• In Switzerland
  • List of Countries
  • For 7 days
  • Water Temperature
  • Satellite Maps
  • Weather Map
  • Weather Widgets
  • user-avatar
    Login

    Hourly Weather Istomino

    Today, 24 September, Monday

    Time Temperature Precipitation Wind Pressure Humidity
    00:00 +17°C° 0 mm 4 mps 761 mmHg 69%
    01:00 +15°C° 0 mm 4 mps 762 mmHg 70%
    02:00 +16°C° 0 mm 3 mps 762 mmHg 71%
    03:00 +14°C° 0 mm 3 mps 762 mmHg 72%
    04:00 +14°C° 0 mm 2 mps 762 mmHg 73%
    05:00 +14°C° 0 mm 2 mps 762 mmHg 74%
    06:00 +13°C° 0 mm 1 mps 762 mmHg 75%
    07:00 +14°C° 0 mm 1 mps 763 mmHg 68%
    08:00 +15°C° 0 mm 2 mps 763 mmHg 62%
    09:00 +16°C° 0 mm 2 mps 763 mmHg 55%
    10:00 +18°C° 0 mm 2 mps 762 mmHg 48%
    11:00 +19°C° 0 mm 2 mps 762 mmHg 41%
    12:00 +21°C° 0 mm 3 mps 762 mmHg 35%
    13:00 +22°C° 0 mm 3 mps 761 mmHg 33%
    14:00 +24°C° 0 mm 3 mps 761 mmHg 32%
    15:00 +25°C° 0 mm 3 mps 760 mmHg 31%
    16:00 +25°C° 0 mm 3 mps 760 mmHg 37%
    17:00 +24°C° 0 mm 3 mps 759 mmHg 43%
    18:00 +22°C° 0 mm 3 mps 758 mmHg 49%
    19:00 +22°C° 0 mm 3 mps 758 mmHg 55%
    20:00 +22°C° 0 mm 3 mps 758 mmHg 61%
    21:00 +21°C° 0 mm 3 mps 758 mmHg 67%
    22:00 +21°C° 0 mm 3 mps 757 mmHg 70%
    23:00 +21°C° 0 mm 4 mps 757 mmHg 73%

    Tomorrow, 25 September, Tuesday

    Time Temperature Precipitation Wind Pressure Humidity
    00:00 +21°C° 0 mm 4 mps 756 mmHg 76%
    01:00 +20°C° 0 mm 4 mps 756 mmHg 78%
    02:00 +20°C° 0 mm 4 mps 756 mmHg 80%
    03:00 +20°C° 0 mm 4 mps 756 mmHg 82%
    04:00 +20°C° 0 mm 5 mps 756 mmHg 83%
    05:00 +20°C° 0 mm 5 mps 756 mmHg 84%
    06:00 +19°C° 0 mm 5 mps 756 mmHg 86%
    07:00 +17°C° 0.2 mm 5 mps 756 mmHg 82%
    08:00 +16°C° 0.2 mm 6 mps 757 mmHg 78%
    09:00 +15°C° 0.2 mm 6 mps 757 mmHg 75%
    10:00 +15°C° 0.6 mm 6 mps 758 mmHg 74%
    11:00 +14°C° 0.6 mm 5 mps 759 mmHg 73%
    12:00 +14°C° 0.6 mm 5 mps 759 mmHg 72%
    13:00 +14°C° 0.4 mm 5 mps 759 mmHg 72%
    14:00 +14°C° 0.4 mm 5 mps 760 mmHg 71%
    15:00 +13°C° 0.4 mm 5 mps 760 mmHg 70%
    16:00 +14°C° 0.1 mm 4 mps 761 mmHg 69%
    17:00 +14°C° 0.1 mm 4 mps 761 mmHg 67%
    18:00 +14°C° 0.1 mm 4 mps 761 mmHg 66%
    19:00 +14°C° 0 mm 4 mps 762 mmHg 64%
    20:00 +14°C° 0 mm 4 mps 762 mmHg 62%
    21:00 +14°C° 0 mm 4 mps 763 mmHg 61%
    22:00 +13°C° 0 mm 4 mps 763 mmHg 61%
    23:00 +12°C° 0 mm 4 mps 763 mmHg 62%

    Day after tomorrow, 26 September, Wednesday

    Time Temperature Precipitation Wind Pressure Humidity
    00:00 +12°C° 0 mm 3 mps 764 mmHg 63%
    01:00 +11°C° 0 mm 3 mps 764 mmHg 65%
    02:00 +11°C° 0 mm 3 mps 764 mmHg 67%
    03:00 +10°C° 0 mm 3 mps 765 mmHg 69%
    04:00 +10°C° 0 mm 3 mps 765 mmHg 72%
    05:00 +9°C° 0 mm 3 mps 766 mmHg 75%
    06:00 +9°C° 0 mm 2 mps 766 mmHg 77%
    07:00 +10°C° 0 mm 3 mps 766 mmHg 73%
    08:00 +11°C° 0 mm 3 mps 767 mmHg 68%
    09:00 +13°C° 0 mm 3 mps 767 mmHg 64%
    10:00 +14°C° 0 mm 3 mps 768 mmHg 59%
    11:00 +14°C° 0 mm 3 mps 768 mmHg 53%
    12:00 +16°C° 0 mm 3 mps 768 mmHg 48%
    13:00 +17°C° 0.1 mm 3 mps 768 mmHg 46%
    14:00 +17°C° 0.1 mm 3 mps 768 mmHg 45%
    15:00 +17°C° 0.1 mm 3 mps 768 mmHg 43%
    16:00 +17°C° 0.1 mm 3 mps 768 mmHg 45%
    17:00 +16°C° 0.1 mm 2 mps 768 mmHg 46%
    18:00 +16°C° 0.1 mm 2 mps 768 mmHg 48%
    19:00 +15°C° 0 mm 2 mps 769 mmHg 49%
    20:00 +15°C° 0 mm 2 mps 769 mmHg 50%
    21:00 +14°C° 0 mm 2 mps 769 mmHg 52%
    22:00 +14°C° 0 mm 2 mps 769 mmHg 53%
    23:00 +13°C° 0 mm 2 mps 769 mmHg 54%

    27 September, Thursday

    Time Temperature Precipitation Wind Pressure Humidity
    00:00 +12°C° 0 mm 3 mps 769 mmHg 55%
    01:00 +11°C° 0 mm 3 mps 769 mmHg 55%
    02:00 +11°C° 0 mm 3 mps 769 mmHg 56%
    03:00 +10°C° 0 mm 3 mps 769 mmHg 57%
    04:00 +10°C° 0 mm 2 mps 769 mmHg 58%
    05:00 +9°C° 0 mm 2 mps 769 mmHg 58%
    06:00 +9°C° 0 mm 2 mps 769 mmHg 59%
    07:00 +10°C° 0 mm 2 mps 770 mmHg 55%
    08:00 +12°C° 0 mm 2 mps 770 mmHg 50%
    09:00 +14°C° 0 mm 1 mps 770 mmHg 45%
    10:00 +15°C° 0 mm 2 mps 769 mmHg 41%
    11:00 +16°C° 0 mm 2 mps 769 mmHg 37%
    12:00 +17°C° 0 mm 3 mps 769 mmHg 34%
    13:00 +18°C° 0 mm 3 mps 769 mmHg 32%
    14:00 +18°C° 0 mm 4 mps 768 mmHg 31%
    15:00 +18°C° 0 mm 4 mps 768 mmHg 30%
    16:00 +17°C° 0 mm 4 mps 768 mmHg 32%
    17:00 +16°C° 0 mm 3 mps 768 mmHg 34%
    18:00 +16°C° 0 mm 3 mps 767 mmHg 37%
    19:00 +14°C° 0 mm 3 mps 768 mmHg 39%
    20:00 +13°C° 0 mm 3 mps 768 mmHg 42%
    21:00 +12°C° 0 mm 3 mps 768 mmHg 45%
    22:00 +13°C° 0 mm 2 mps 768 mmHg 46%
    23:00 +13°C° 0 mm 2 mps 768 mmHg 47%

    28 September, Friday

    Time Temperature Precipitation Wind Pressure Humidity
    00:00 +12°C° 0 mm 2 mps 767 mmHg 48%
    01:00 +12°C° 0 mm 2 mps 767 mmHg 48%
    02:00 +12°C° 0 mm 2 mps 767 mmHg 48%
    03:00 +12°C° 0 mm 2 mps 767 mmHg 48%
    04:00 +10°C° 0 mm 2 mps 767 mmHg 49%
    05:00 +10°C° 0 mm 2 mps 766 mmHg 49%
    06:00 +10°C° 0 mm 2 mps 766 mmHg 50%
    07:00 +13°C° 0 mm 2 mps 766 mmHg 46%
    08:00 +14°C° 0 mm 2 mps 766 mmHg 42%
    09:00 +16°C° 0 mm 3 mps 766 mmHg 38%
    10:00 +17°C° 0 mm 3 mps 766 mmHg 34%
    11:00 +19°C° 0 mm 3 mps 765 mmHg 31%
    12:00 +20°C° 0 mm 3 mps 765 mmHg 27%
    13:00 +21°C° 0 mm 3 mps 764 mmHg 27%
    14:00 +21°C° 0 mm 4 mps 764 mmHg 26%
    15:00 +22°C° 0 mm 4 mps 763 mmHg 26%
    16:00 +21°C° 0 mm 3 mps 763 mmHg 29%
    17:00 +19°C° 0 mm 3 mps 763 mmHg 32%
    18:00 +18°C° 0 mm 2 mps 763 mmHg 36%
    19:00 +18°C° 0 mm 2 mps 763 mmHg 39%
    20:00 +17°C° 0 mm 2 mps 763 mmHg 42%
    21:00 +16°C° 0 mm 2 mps 763 mmHg 46%
    22:00 +16°C° 0 mm 2 mps 763 mmHg 47%
    23:00 +15°C° 0 mm 1 mps 763 mmHg 49%

    29 September, Saturday

    Time Temperature Precipitation Wind Pressure Humidity
    00:00 +15°C° 0 mm 1 mps 763 mmHg 51%
    01:00 +15°C° 0 mm 1 mps 763 mmHg 53%
    02:00 +14°C° 0 mm 1 mps 763 mmHg 55%
    03:00 +14°C° 0 mm 1 mps 763 mmHg 56%
    04:00 +14°C° 0 mm 1 mps 763 mmHg 57%
    05:00 +14°C° 0 mm 1 mps 763 mmHg 58%
    06:00 +12°C° 0 mm 0 mps 763 mmHg 59%
    07:00 +15°C° 0 mm 1 mps 763 mmHg 54%
    08:00 +18°C° 0 mm 1 mps 763 mmHg 49%
    09:00 +19°C° 0 mm 1 mps 763 mmHg 44%
    10:00 +20°C° 0 mm 2 mps 762 mmHg 40%
    11:00 +23°C° 0 mm 2 mps 762 mmHg 35%
    12:00 +24°C° 0 mm 2 mps 762 mmHg 31%
    13:00 +25°C° 0 mm 2 mps 761 mmHg 30%
    14:00 +26°C° 0 mm 2 mps 761 mmHg 29%
    15:00 +26°C° 0 mm 2 mps 760 mmHg 28%
    16:00 +26°C° 0 mm 2 mps 760 mmHg 30%
    17:00 +25°C° 0 mm 2 mps 760 mmHg 31%
    18:00 +24°C° 0 mm 2 mps 760 mmHg 33%
    19:00 +23°C° 0 mm 2 mps 760 mmHg 35%
    20:00 +23°C° 0 mm 2 mps 760 mmHg 36%
    21:00 +21°C° 0 mm 2 mps 760 mmHg 38%
    22:00 +21°C° 0 mm 2 mps 760 mmHg 40%
    23:00 +20°C° 0 mm 2 mps 759 mmHg 43%
    Show more